Simultaneous Nadir Overpasses (SNOs) Predictions

Prediction of SNOs between NOAA-21 and NOAA-19 Satellite Orbit:

Table of predicted SNOs for the next 14.0 days since TLE Epoch: 8/17/2024
Index Date (NOAA-21) Time (NOAA-21) Lat,Lon (NOAA-21) SZA (NOAA-21 ) Date (NOAA-19) Time (NOAA-19) Lat,Lon (NOAA-19) SZA (NOAA-19 ) Distance(km) Time Diff (sec)
1 08/17/2024 20:30:55 72.46,-135.40 59.54 08/17/2024 20:29:44 72.45,-136.81 59.63 47.27 71
2 08/17/2024 21:21:46 -72.81, 31.20 120.07 08/17/2024 21:20:36 -72.79, 31.16 120.08 2.93 70
3 08/17/2024 22:12:32 72.82,-161.51 59.96 08/17/2024 22:11:34 72.84,-161.47 59.98 2.37 58
4 08/17/2024 23:03:16 -72.82, 5.82 120.04 08/17/2024 23:02:33 -72.82, 5.75 120.02 2.24 43
5 08/17/2024 23:54:02 72.83, 173.10 59.99 08/17/2024 23:53:32 72.82, 173.01 59.99 2.89 30
6 08/18/2024 00:44:47 -72.87, -19.68 119.96 08/18/2024 00:44:30 -72.86, -19.66 119.97 1.65 17
7 08/18/2024 01:35:33 72.89, 147.60 60.07 08/18/2024 01:35:29 72.86, 147.60 60.05 2.91 4
8 08/18/2024 02:26:17 -72.88, -45.06 119.93 08/18/2024 02:26:27 -72.89, -45.07 119.92 1.79 10
9 08/18/2024 03:17:03 72.89, 122.22 60.10 08/18/2024 03:17:26 72.89, 122.19 60.10 0.98 23
10 08/18/2024 04:07:48 -72.93, -70.56 119.85 08/18/2024 04:08:24 -72.93, -70.48 119.86 2.65 36
11 08/18/2024 04:58:34 72.95, 96.72 60.19 08/18/2024 04:59:23 72.93, 96.78 60.15 2.74 49
12 08/18/2024 05:49:18 -72.94, -95.94 119.82 08/18/2024 05:50:22 -72.92, -96.00 119.85 3.18 64
13 08/18/2024 06:40:06 73.05, 71.12 60.33 08/18/2024 06:41:19 73.01, 71.48 60.25 12.56 73
14 08/18/2024 07:31:00 -73.54,-122.66 119.12 08/18/2024 07:32:08 -73.49,-120.16 119.32 79.33 68



Historial Predications of SNOs between NOAA-21 and NOAA-19
